Flag for Macedonia, Republic of Weather past 2 weeks in Ohrid, Macedonia, Republic of

Now
70 °F

Scattered clouds.


Feels Like: 70 °F
Forecast: 57 / 72 °F
Wind: 5 mph from Northeast

Location: Ohrid Airport

Current Time: Jul 22, 2014 at 10:09:47 PM

Latest Report: Jul 22, 2014 at 7:00 PM


Visibility: N/A

Pressure: 29.83 "Hg

Humidity: 73%

Dew point: 61 °F

Location of OhridLocation

Historic Weather in Ohrid — Graph

°F

Ohrid temperature yesterday

Maximum temperature yesterday: 84 °F (at 4:00 PM)
Minimum temperature yesterday: 55 °F (at 5:30 AM)
Average temperature yesterday: 72 °F

Past Weeks' High & Low Weather Summary

 TemperatureHumidityPressure
High86 °F (Jul 8, 2:30 PM)94% (Jul 11, 4:00 AM)30.09 "Hg (Jul 11, 4:00 AM)
Low48 °F (Jul 11, 4:30 AM)33% (Jul 8, 2:30 PM)29.74 "Hg (Jul 11, 4:00 AM)
Average68 °F69%29.96 "Hg
* Reported Jul 8 8:00 AM — Jul 22 7:00 PM, Ohrid, Weather by CustomWeather, © 2014

Note: Actual official high and low records may vary slightly from our data, if they occured in-between our weather recording intervals... More about our weather records

Advertising

Ohrid weather history for previous 24 hours

 ConditionsComfort  
Time TempWeatherWind HumidityBarometerVisibility
7:00 PM
Jul 22
70 °FScattered clouds.5 mph73%29.83 "HgN/A
6:30 PM68 °FScattered clouds.6 mph78%29.83 "HgN/A
6:00 PM70 °FScattered clouds.2 mph73%29.80 "HgN/A
5:30 PM70 °FScattered clouds.3 mph78%29.83 "HgN/A
5:00 PM70 °FPartly sunny.2 mph78%29.83 "HgN/A
4:30 PM70 °FPartly sunny.5 mph78%29.83 "HgN/A
4:00 PM70 °FThunderstorms. Broken clouds.7 mph83%29.83 "HgN/A
3:30 PM66 °FThunderstorms. Broken clouds.2 mph88%29.83 "HgN/A
3:00 PM68 °FThunderstorms. Broken clouds.3 mph83%29.83 "Hg3 mi
2:30 PM68 °FThunderstorms. Broken clouds.5 mph83%29.83 "HgN/A
2:00 PM70 °FThundershowers. Partly sunny.3 mph78%29.80 "HgN/A
1:30 PM70 °FLight rain. Partly sunny.5 mph73%29.80 "HgN/A
1:00 PM72 °FPartly sunny.8 mph69%29.83 "HgN/A
12:30 PM72 °FScattered clouds.7 mph69%29.80 "HgN/A
12:00 PM75 °FScattered clouds.8 mph61%29.83 "HgN/A
11:30 AM77 °FScattered clouds.7 mph54%29.83 "HgN/A
11:00 AM75 °FPassing clouds.6 mph57%29.83 "HgN/A
10:30 AM75 °FPassing clouds.9 mph54%29.86 "HgN/A
10:00 AM73 °FScattered clouds.13 mph57%29.86 "HgN/A
9:30 AM70 °FScattered clouds.9 mph69%29.86 "HgN/A
9:00 AM66 °FPartly sunny.7 mph83%29.86 "HgN/A
8:30 AM64 °FThundershowers. Partly sunny.3 mph83%29.89 "HgN/A
8:00 AM64 °FThundershowers. Partly sunny.6 mph83%29.89 "HgN/A
7:30 AM64 °FThundershowers. Scattered clouds.3 mph83%29.89 "HgN/A
6:30 AM63 °FThundershowers. Scattered clouds.5 mph88%29.89 "HgN/A
6:00 AM63 °FPassing clouds.6 mph88%29.89 "HgN/A
5:30 AM64 °FPassing clouds.2 mph78%29.86 "HgN/A
5:00 AM64 °FPassing clouds.3 mph78%29.89 "HgN/A
4:30 AM64 °FPassing clouds.7 mph78%29.89 "HgN/A
Weather by CustomWeather, © 2014

See weather overviewHow to use our weather pages